STARLINK-32400, 61669

Orbit data source: Space-Track

STARLINK-32400, 61669 is a payload satellite owned by SpaceX/Seattle (US) in LEO that was launched on Sat, 26 Oct 2024 UTC via an FALCON 9 launch vehicle from the Air Force Eastern Test Range (AFETR). Payload-class satellites include a variety of spacecraft equipped with specific instruments for various scientific and technological missions. These include communications satellites like Starlink; space stations such as the ISS; scientific satellites like the Hubble; Earth observation satellites from companies like Planet Labs, Umbra, and HawkEye 360; GPS; miniature CubeSats for education and research; and military/defense satellites.

Loading next visibility...
Identifier
61669, 2024-193J
Orbit
LEO
Country
Flag of USUS
Related business
Manufacturer
SpaceX/Seattle
Mission
Operational Commercial Communications
Bus & Motor
STARLINK V2M, Unknown motor
Mass
730 kg wet, ~700 kg dry
Launch date (UTC)
2024-10-26 (2 years ago)
Launch vehicle
FALCON 9
Launch site
Air Force Eastern Test Range (AFETR)
Object type
Payload
Rocket body
Debris
Shape & HBR
Box + 2 Pan, 17.7 m
Radar Cross Section
33.884 m², Large (>1 m²)

Expand to show TLE details & history
Last TLE update: 11 hours ago

TLE from 11 hours ago
0 STARLINK-32400
1 61669U 24193J   26125.42036900  .00000699  00000-0  35723-4 0  9995
2 61669  53.1614 185.2779 0001074  94.8593 265.2531 15.30195336 85248
Epoch: 2026-05-05T10:05Z
TLE epoch observation values (Epoch: 2026-05-05T10:05:19.881Z)
Latitude
0.00002°
Longitude
170.64961°
Altitude
476.19 km
Speed
7.629 km/s
True Right ascension
12h 21m 06s
True Declination
0° 00' 00"
Sunlit
Object was in full shadow at epoch
Visualization orbit readout
Latitude
Unknown
Longitude
Unknown
Altitude
Unknown
Speed
Unknown
Apparent Right ascension
Unknown
Apparent Declination
Unknown
Sunlit
N/A
Visualization observer readout
Local Sidereal Time
05:23:47
Azimuth
Unknown
Elevation
Unknown
Doppler factor
Unknown
Orbital elements
Apogee altitude
476.221 km
Perigee altitude
474.749 km
Semi-major axis
6,853.622 km
Eccentricity
0.00011
Inclination
53.1614°
RAAN
185.2779°
Arg. of periapsis
94.8593°
True anomaly
265.24084°
Mean anomaly
265.2531°
Eccentric anomaly
265.24697°
Mean motion
3.82528 °/min
Orbital period
94.11 mins
BSTAR
0.000035723
Loading maneuver chart data...
Computing Atmospheric mass density...
Loading historical data...
Loading historical data...
Loading historical data...
Loading historical data...
Loading historical data...
Loading historical data...
Loading historical data...

Documentation

Showing up to 5 results
|